This is the latest recevied weather packets stored in our database for station/object W7PLC. If no packets are shown the sender has not sent any weather packets the latest 10 day(s).
| Time | Temp. | Humidity | Pressure | Rain* | Wind** | Luminosity | Snow |
|---|---|---|---|---|---|---|---|
| 1777948704 | 18.33° C | 67% | 1008.8 hPa | 0 mm | - | 10 W/m² | - |
| 1777948401 | 17.78° C | 71% | 1008.8 hPa | 0 mm | - | 11 W/m² | - |
| 1777948099 | 18.33° C | 69% | 1008.9 hPa | 0 mm | - | 12 W/m² | - |
| 1777947795 | 18.33° C | 70% | 1008.9 hPa | 0 mm | - | 13 W/m² | - |
| 1777947493 | 18.33° C | 69% | 1008.7 hPa | 0 mm | - | 15 W/m² | - |
| 1777947189 | 18.89° C | 67% | 1008.9 hPa | 0 mm | - | 16 W/m² | - |
| 1777946885 | 18.89° C | 67% | 1008.8 hPa | 0 mm | - | 17 W/m² | - |
| 1777946581 | 19.44° C | 66% | 1008.7 hPa | 0 mm | - | 19 W/m² | - |
| 1777946278 | 19.44° C | 65% | 1008.9 hPa | 0 mm | - | 20 W/m² | - |
| 1777945975 | 20° C | 63% | 1008.6 hPa | 0 mm | - | 23 W/m² | - |
| 1777945672 | 20° C | 63% | 1008.6 hPa | 0 mm | - | 24 W/m² | - |
| 1777945369 | 20° C | 62% | 1008.6 hPa | 0 mm | - | 25 W/m² | - |
| 1777945066 | 20.56° C | 60% | 1008.6 hPa | 0 mm | - | 24 W/m² | - |
| 1777944763 | 20.56° C | 58% | 1008.8 hPa | 0 mm | - | 26 W/m² | - |
| 1777944461 | 21.11° C | 58% | 1008.5 hPa | 0 mm | - | 28 W/m² | - |
| 1777944158 | 21.11° C | 59% | 1008.9 hPa | 0 mm | - | 29 W/m² | - |
| 1777943853 | 21.11° C | 59% | 1008.8 hPa | 0 mm | - | 29 W/m² | - |
| 1777943551 | 21.11° C | 59% | 1008.8 hPa | 0 mm | - | 30 W/m² | - |
| 1777943246 | 21.67° C | 58% | 1008.8 hPa | 0 mm | - | 30 W/m² | - |
| 1777942943 | 21.67° C | 58% | 1008.8 hPa | 0 mm | - | 30 W/m² | - |
| 1777942640 | 22.22° C | 58% | 1008.6 hPa | 0 mm | - | 30 W/m² | - |
| 1777942337 | 22.78° C | 57% | 1008.8 hPa | 0 mm | - | 32 W/m² | - |
| 1777942034 | 22.22° C | 58% | 1008.7 hPa | 0 mm | - | 83 W/m² | - |
| 1777941730 | 22.22° C | 56% | 1008.8 hPa | 0 mm | - | 214 W/m² | - |
| 1777941428 | 22.78° C | 55% | 1008.6 hPa | 0 mm | - | 224 W/m² | - |
* Rain latest hour (hover to see other rain measurements)
** Current wind speed in m/s (hover to see current wind gust speed)